User: anonymous   Login
Location: Hopkins Observatory
(42.6965°N, 73.1843°W)
Time: 09:11:55
(UTC-04:00)
Language:

RS-15 - Orbit

View from above orbital plane
View from above orbital plane
View from above satellite
View from above satellite

Ground track
Ground track

The orbit data is extracted from the following two-line orbital elements,

1 23439U 94085A   16236.74404437 -.00000022 +00000-0 +58514-3 0  9999
2 23439 064.8203 340.2625 0166679 296.2916 219.2396 11.27564780891874
Epoch (UTC): 23 August 2016 17:51:25
Eccentricity: 0.0166679
inclination: 64.8203°
perigee height: 1882 km
apogee height: 2162 km
right ascension of ascending node: 340.2625°
argument of perigee: 296.2916°
revolutions per day: 11.27564780
mean anomaly at epoch: 219.2396°
orbit number at epoch: 89187

The dashed part of the orbit path shows where the satellite is in the earth's shadow,  

DLR